Hourly Data Report for April 08, 2017

All times are specified in Local Standard Time (LST). Add 1 hour to adjust for Daylight Saving Time where and when it is observed.

TORONTO CITY
ONTARIO

43°40'00.000" N
79°24'00.000" W
112.50 m
6158355
71508
XTO

Download Data

Hourly Data (April 2017)
Hourly Data Report for April 8, 2017
TIME Temp Definition
°C
Dew Point Definition
°C
Rel Hum Definition
%
Wind Dir Definition
10's deg

Wind Spd Definition
km/h
Visibility Definition
km
Stn Press Definition
kPa
Hmdx Definition


Wind Chill Definition


Weather Definition


00:00 2.8 -4.6 58 LegendMM LegendMM   99.70     LegendNANA
01:00 2.7 -5.0 57 LegendMM LegendMM   99.69     LegendNANA
02:00 1.9 -4.8 61 LegendMM LegendMM   99.71     LegendNANA
03:00 1.9 -5.1 60 LegendMM LegendMM   99.76     LegendNANA
04:00 1.7 -5.7 58 LegendMM LegendMM   99.81     LegendNANA
05:00 1.0 -5.5 62 LegendMM LegendMM   99.89     LegendNANA
06:00 1.1 -5.9 60 LegendMM LegendMM   99.98     LegendNANA
07:00 2.1 -6.4 53 LegendMM LegendMM   100.08     LegendNANA
08:00 4.1 -6.3 47 LegendMM LegendMM   100.12     LegendNANA
09:00 5.4 -8.0 37 LegendMM LegendMM   100.17     LegendNANA
10:00 6.6 -8.7 32 LegendMM LegendMM   100.21     LegendNANA
11:00 8.8 -9.2 27 LegendMM LegendMM   100.23     LegendNANA
12:00 10.3 -8.3 26 LegendMM LegendMM   100.19     LegendNANA
13:00 10.6 -11.1 21 LegendMM LegendMM   100.17     LegendNANA
14:00 9.3 -6.3 33 LegendMM LegendMM   100.15     LegendNANA
15:00 10.7 -6.7 29 LegendMM LegendMM   100.12     LegendNANA
16:00 11.0 -7.3 27 LegendMM LegendMM   100.10     LegendNANA
17:00 10.1 -7.2 29 LegendMM LegendMM   100.09     LegendNANA
18:00 9.8 0.7 53 LegendMM LegendMM   100.08     LegendNANA
19:00 8.8 1.1 58 LegendMM LegendMM   100.10     LegendNANA
20:00 8.1 1.2 62 LegendMM LegendMM   100.13     LegendNANA
21:00 7.6 1.1 63 LegendMM LegendMM   100.16     LegendNANA
22:00 8.2 0.3 57 LegendMM LegendMM   100.18     LegendNANA
23:00 8.0 -0.7 54 LegendMM LegendMM   100.18     LegendNANA

Notes on Data Quality.

Legend

  • E = Estimated
  • M = Missing
  • NA = Not Available
Date modified: